This is the latest recevied weather packets stored in our database for station/object 4S6DRJ-13. If no packets are shown the sender has not sent any weather packets the latest 10 day(s).
| Time | Temp. | Humidity | Pressure | Rain* | Wind** | Luminosity | Snow |
|---|---|---|---|---|---|---|---|
| 1788216420 | 26.67° C | 89% | 1007.1 hPa | 0 mm | 1.34 m/s, 139° | 0 W/m² | - |
| 1788216359 | 26.67° C | 89% | 1007 hPa | 0 mm | 0.89 m/s, 109° | 0 W/m² | - |
| 1788216298 | 26.67° C | 89% | 1007.1 hPa | 0 mm | 1.79 m/s, 147° | 0 W/m² | - |
| 1788216237 | 26.67° C | 89% | 1007.2 hPa | 0 mm | 0.89 m/s, 133° | 0 W/m² | - |
| 1788216176 | 26.67° C | 89% | 1007.3 hPa | 0 mm | 1.34 m/s, 168° | 0 W/m² | - |
| 1788216116 | 26.67° C | 89% | 1007 hPa | 0 mm | 0.45 m/s, 137° | 0 W/m² | - |
| 1788216054 | 26.67° C | 89% | 1007.1 hPa | 0 mm | 1.34 m/s, 124° | 0 W/m² | - |
| 1788215993 | 26.67° C | 89% | 1007.1 hPa | 0 mm | 0.89 m/s, 120° | 0 W/m² | - |
| 1788215932 | 26.67° C | 89% | 1007 hPa | 0 mm | 0.89 m/s, 122° | 0 W/m² | - |
| 1788215871 | 26.67° C | 89% | 1007.1 hPa | 0 mm | 0.45 m/s, 141° | 0 W/m² | - |
| 1788215810 | 26.67° C | 89% | 1007.1 hPa | 0 mm | 0.45 m/s, 129° | 0 W/m² | - |
| 1788215749 | 26.67° C | 89% | 1007.2 hPa | 0 mm | 0 m/s | 0 W/m² | - |
| 1788215688 | 26.67° C | 89% | 1007.1 hPa | 0 mm | 0 m/s | 0 W/m² | - |
| 1788215627 | 26.67° C | 89% | 1007.2 hPa | 0 mm | 0.89 m/s, 128° | 0 W/m² | - |
| 1788215565 | 26.67° C | 89% | 1007.1 hPa | 0 mm | 0.45 m/s, 141° | 0 W/m² | - |
| 1788215504 | 26.67° C | 89% | 1007.1 hPa | 0 mm | 0.45 m/s, 124° | 0 W/m² | - |
| 1788215445 | 26.67° C | 89% | 1007 hPa | 0 mm | 0.45 m/s, 159° | 0 W/m² | - |
| 1788215382 | 26.67° C | 89% | 1007.1 hPa | 0 mm | 0.89 m/s, 139° | 0 W/m² | - |
| 1788215322 | 26.67° C | 89% | 1007.1 hPa | 0 mm | 0.89 m/s, 117° | 0 W/m² | - |
| 1788215260 | 26.67° C | 89% | 1007 hPa | 0 mm | 1.34 m/s, 163° | 0 W/m² | - |
| 1788215199 | 26.67° C | 89% | 1007.1 hPa | 0 mm | 0.45 m/s, 162° | 0 W/m² | - |
| 1788215138 | 26.67° C | 89% | 1007.4 hPa | 0 mm | 0.45 m/s, 168° | 0 W/m² | - |
| 1788215078 | 26.67° C | 89% | 1007.1 hPa | 0 mm | 0 m/s | 0 W/m² | - |
| 1788215016 | 26.67° C | 89% | 1007.1 hPa | 0 mm | 0.89 m/s, 186° | 0 W/m² | - |
| 1788214955 | 26.67° C | 89% | 1007.3 hPa | 0 mm | 0 m/s | 0 W/m² | - |
* Rain latest hour (hover to see other rain measurements)
** Current wind speed in m/s (hover to see current wind gust speed)